Regional Weather Roundup
Issued by NWS

Home | Current Version | Previous Version | Text Only | Print | Product List | Glossary Off
Versions: 1 2 3 4 5 6 7 8 9 10 11 12 13 14 15 16 17 18 19 20 21 22 23 24 25 26 27 28 29 30 31 32 33 34 35 36 37 38 39 40 41 42 43 44 45 46 47 48 49 50

000
ASUS43 KLMK 221410
RWRKY
KENTUCKY REGIONAL WEATHER ROUNDUP
NATIONAL WEATHER SERVICE LOUISVILLE KY
1000 AM EDT WED MAR 22 2017

NOTE "FAIR" INDICATES FEW OR NO CLOUDS BELOW 12,000 FEET
WITH NO SIGNIFICANT WEATHER AND/OR OBSTRUCTIONS TO VISIBILITY.

KYZ001>023-026-027-061>063-070>075-221500-
WESTERN AND SOUTH CENTRAL KENTUCKY

CITY           SKY/WX    TMP DP  RH WIND       PRES   REMARKS
PADUCAH        CLOUDY    44  29  55 NE18      30.38R
HENDERSON      SUNNY     39  19  45 NE15      30.42R WCI  31
OWENSBORO      SUNNY     41  23  48 NE12G21   30.43R
HOPKINSVILLE   SUNNY     44  27  51 NE15      30.35R
BOWLING GREEN  SUNNY     43  24  47 NE15      30.38R
GLASGOW        MOSUNNY   40  24  53 NE18G24   30.37R WCI  30
$$

KYZ024-025-028>034-038-045-046-053-221500-
NORTH CENTRAL KENTUCKY

CITY           SKY/WX    TMP DP  RH WIND       PRES   REMARKS
LOUISVILLE/SDF MOSUNNY   38  13  35 NE15      30.43R WCI  29
LOUISVILLE/LOU SUNNY     37  16  42 NE12      30.44R WCI  29
FORT KNOX      SUNNY     38  18  43 NE13      30.39R WCI  30
$$

KYZ035>037-039>044-047>052-055>060-089>105-221500-
NORTHEAST KENTUCKY

CITY           SKY/WX    TMP DP  RH WIND       PRES   REMARKS
LEXINGTON      SUNNY     35  17  47 NE20      30.40R WCI  24
COVINGTON      MOSUNNY   31  16  54 NE16      30.45R WCI  20
FRANKFORT      SUNNY     35  14  42 NE13      30.41R WCI  26
$$

KYZ054-064>069-076>088-106>120-221500-
SOUTHEAST KENTUCKY

CITY           SKY/WX    TMP DP  RH WIND       PRES   REMARKS
JACKSON        MOSUNNY   37  22  54 MISG      30.34R
LONDON         MOSUNNY   39  23  52 NE9       30.33R WCI  33
SOMERSET       SUNNY     36  19  51 NE14      30.36R WCI  27
MIDDLESBORO    MOSUNNY   44  25  48 N8        30.29R
MONTICELLO     CLOUDY    39  22  50 N15G28    30.36R WCI  31
$$




USA.gov is the U.S. government's official web portal to all federal, state and local government web resources and services.